Location: *
(47.6569°N, 7.4256°E)
Time: 23:19:42
(UTC+00:00)

Cosmos 2369 Rocket - Pass Details

Date: 14 December 2019
Orbit: 828 x 853 km, 71.0° (Epoch: 26 January)

Event Time Altitude Azimuth Distance (km) Brightness Sun altitude
Rises 16:15:42 0° 338° (NNW) 3,391 5.3 -6.2°
Reaches altitude 10° 16:18:44 10° 354° (N) 2,457 4.4 -6.6°
Maximum altitude 16:23:00 22° 43° (NE) 1,783 3.4 -7.3°
Drops below altitude 10° 16:27:16 10° 92° (E) 2,461 4.1 -7.9°
Sets 16:30:18 0° 108° (ESE) 3,397 4.9 -8.4°
